User: anonymous   Login
Location: Oshawa
(43.9000°N, 78.8670°W)
Time: 03:35:35
(UTC-04:00)
Language:

CARTOSAT-1 - Orbit

View from above orbital plane
View from above orbital plane
View from above satellite
View from above satellite

Ground track
Ground track

The orbit data is extracted from the following two-line orbital elements,

1 28649U 05017A   16183.74267134 -.00000934  00000-0 -10739-3 0  9996
2 28649  97.8976 256.8574 0003362  97.4045 262.7556 14.83422646604022
Epoch (UTC): 01 July 2016 17:49:26
Eccentricity: 0.0003362
inclination: 97.8976°
perigee height: 616 km
apogee height: 621 km
right ascension of ascending node: 256.8574°
argument of perigee: 97.4045°
revolutions per day: 14.83422646
mean anomaly at epoch: 262.7556°
orbit number at epoch: 60402

The dashed part of the orbit path shows where the satellite is in the earth's shadow,  

DLR